Wind_Speed
29 33 32 35 34 29 30 35 36 32 31 29 21 15 15 16 23 30 27 26 29 29 28 26 27 28 26 23 20 18 19 18 16 14 15 18 18 15 14 13 14 16 15 14 14 14 16 17 14 14 15 14 15 17 17 14 12 11 11 11 11 11 12
22 28 33 35 32 28 26 31 35 29 25 25 21 16 16 13 17 27 30 29 30 30 29 28 28 27 25 23 21 20 19 17 16 15 13 15 17 17 15 15 16 16 15 16 17 18 19 18 15 14 15 13 13 16 18 17 15 14 14 13 12 11 10
19 23 32 37 35 32 27 27 31 28 26 28 29 26 23 20 20 27 29 29 31 31 30 30 30 28 27 26 22 20 18 16 16 16 14 14 14 17 17 16 16 17 17 19 21 22 22 18 14 13 13 12 12 15 19 20 18 16 15 15 13 12 10
22 22 33 39 39 36 32 29 32 34 33 33 33 31 28 24 23 26 28 28 31 33 30 28 31 34 34 30 23 19 18 18 18 17 17 16 14 17 19 18 17 18 20 22 21 19 18 14 10 10 10 10 12 16 18 20 20 19 17 15 15 14 12
26 28 37 41 39 37 32 30 34 38 39 34 32 32 30 25 20 23 28 29 30 31 28 27 33 37 36 33 29 25 23 22 20 18 18 19 18 18 18 20 20 19 20 20 15 11 11 10 10 10 8 8 12 15 17 19 20 20 18 17 17 16 14
23 27 37 42 40 37 35 36 37 37 36 34 32 32 30 27 21 21 27 29 28 28 28 29 33 32 28 27 28 28 25 24 24 21 19 20 21 19 18 19 21 22 22 18 11 7 8 10 10 9 8 8 11 13 14 17 19 20 20 20 19 18 17
16 20 32 39 38 37 39 39 33 27 29 33 34 33 30 28 24 23 25 26 26 29 30 30 32 31 24 20 19 20 20 22 24 23 21 20 21 20 18 18 20 21 20 17 11 8 9 11 11 10 9 8 11 12 11 14 18 20 21 21 19 19 18
13 13 25 34 37 40 40 38 32 26 27 28 29 31 29 26 26 26 27 27 27 30 32 31 32 32 28 22 18 17 18 20 21 22 22 21 20 20 19 20 20 20 20 18 15 12 11 12 13 12 10 8 10 11 8 9 15 20 21 21 20 20 20
17 14 23 31 37 42 43 41 35 30 28 24 22 29 30 26 27 29 30 30 30 32 33 32 31 28 26 24 23 22 21 21 20 21 23 21 20 21 22 22 21 21 21 20 18 14 12 12 13 12 9 8 9 10 7 7 11 17 21 22 22 22 22
26 22 25 29 35 40 44 44 39 34 33 30 27 31 32 31 30 28 29 32 34 35 35 35 32 27 24 24 25 26 26 24 22 21 22 22 22 24 25 24 22 22 21 20 20 17 14 13 15 14 11 11 11 11 10 9 11 14 18 21 23 22 21
30 27 24 27 31 37 40 41 41 40 34 29 31 32 32 36 35 30 31 35 37 37 38 37 33 27 23 22 23 25 25 24 22 21 22 22 23 24 25 25 24 23 22 21 21 20 17 16 17 17 16 14 13 13 13 13 13 13 14 17 20 21 20
29 27 24 22 24 31 39 40 42 42 32 22 29 33 32 37 38 34 34 38 39 39 39 38 36 33 29 25 23 23 23 23 22 21 22 23 24 24 25 25 25 24 23 23 22 21 21 21 21 21 19 17 15 15 15 16 16 15 13 13 15 18 21
29 25 22 21 20 23 31 37 43 45 37 28 30 34 35 38 40 39 37 38 41 41 40 38 37 37 35 29 24 23 23 23 23 23 23 24 25 26 26 26 26 26 25 24 24 24 24 23 21 20 20 18 16 16 17 18 18 18 15 11 11 14 18
33 29 24 23 23 22 22 29 37 41 42 40 39 39 39 40 42 44 43 42 43 44 43 40 37 37 36 33 27 24 24 25 23 23 24 24 26 27 28 27 27 27 26 26 26 26 26 25 23 21 20 20 19 18 18 18 19 20 18 14 12 11 15
38 37 32 27 27 28 26 28 32 36 41 45 45 43 42 44 45 45 46 46 46 46 45 42 40 38 35 33 29 24 23 24 22 21 24 26 27 28 28 28 28 28 28 27 27 27 28 28 27 26 24 23 23 22 21 20 20 20 19 17 15 13 13
41 42 40 35 31 31 30 30 32 34 40 45 46 43 42 46 48 47 48 49 47 47 46 45 43 40 37 35 33 28 24 23 20 20 23 26 29 30 31 31 31 30 29 29 29 29 29 28 28 28 28 27 26 25 25 24 22 21 20 18 18 17 16
41 40 39 38 36 33 32 32 31 33 37 42 45 45 43 46 49 48 48 50 49 49 49 48 45 42 38 35 33 31 29 26 23 21 22 25 28 30 32 33 33 33 32 31 31 30 30 30 29 29 30 30 29 28 28 28 27 25 24 22 21 21 20
39 38 36 36 38 37 36 35 33 33 34 36 40 43 44 46 49 49 48 49 50 50 51 52 49 45 40 36 33 31 30 29 28 25 23 23 25 28 31 33 34 35 35 34 33 33 32 32 31 31 31 31 31 31 31 31 31 30 29 28 26 24 23
34 35 34 33 36 39 40 38 35 34 34 34 36 41 44 45 47 49 50 49 49 49 49 50 49 47 44 40 37 34 32 31 31 30 28 26 25 26 29 32 34 36 36 36 35 35 34 34 33 33 33 32 33 34 34 33 33 33 33 32 31 29 28
30 30 31 32 34 37 39 39 38 38 37 33 31 35 39 41 42 46 49 50 50 49 48 47 47 46 46 45 43 40 37 34 33 32 33 33 32 30 30 31 33 35 37 37 37 36 36 35 35 35 35 35 35 35 36 36 36 35 35 35 34 33 32
27 28 29 31 34 36 38 38 40 41 40 36 32 33 37 37 36 39 43 47 50 49 49 50 49 47 46 47 48 45 41 39 37 36 35 36 36 36 34 34 34 35 36 38 38 39 39 38 37 36 36 36 36 36 37 37 38 38 38 37 37 36 35
25 26 26 28 31 34 35 36 38 40 42 40 38 37 39 39 36 34 36 41 46 48 48 49 51 50 46 45 46 45 42 40 41 40 39 39 38 37 36 37 37 37 37 38 38 40 41 41 40 39 38 38 38 38 38 39 39 40 40 39 39 38 38
25 25 26 28 30 32 32 32 33 35 38 41 40 39 41 42 40 36 35 38 41 44 44 45 48 51 48 44 44 44 42 41 41 41 41 41 39 37 36 37 38 39 40 40 40 40 42 42 42 41 41 40 41 41 41 41 41 41 42 42 41 41 41
24 24 25 28 30 31 31 29 28 29 32 36 38 39 41 43 42 40 39 39 39 41 41 41 44 48 49 49 49 46 43 41 41 41 41 41 40 40 40 40 40 40 41 42 42 42 43 43 43 43 43 42 43 42 42 42 42 43 43 43 43 43 43
24 24 25 27 29 32 32 30 29 29 29 30 33 35 38 41 43 42 41 41 41 41 41 41 41 44 47 51 52 50 44 41 40 41 41 41 40 40 41 42 42 42 42 42 42 43 44 44 43 44 44 44 44 44 43 43 43 44 44 45 45 45 44
24 25 26 27 29 30 31 31 32 31 30 29 30 31 33 37 41 43 43 43 44 43 42 43 43 43 46 48 50 50 46 41 39 40 41 41 41 41 41 42 43 44 43 43 43 43 44 44 44 44 45 45 46 46 45 44 44 45 46 46 45 45 45
22 25 27 29 30 29 29 31 33 32 31 31 32 32 31 32 33 36 39 42 44 44 43 43 43 43 44 45 48 49 46 42 39 40 41 43 43 44 44 43 44 45 45 44 44 44 43 44 44 44 44 45 46 46 46 46 46 46 46 46 46 46 46
21 23 25 28 29 30 32 33 32 30 30 31 32 33 33 32 31 32 34 37 41 44 46 46 44 43 42 42 44 47 47 45 42 42 43 44 45 46 47 46 46 46 46 46 46 46 45 45 45 44 44 45 45 46 47 47 47 47 46 46 46 46 46
22 24 25 25 26 29 32 32 32 32 32 32 32 32 32 32 32 34 35 35 37 39 43 46 46 45 46 46 45 46 48 49 47 44 44 45 46 47 48 48 48 49 48 48 48 48 47 47 46 46 46 46 46 47 47 48 48 48 47 46 46 46 46
23 24 25 27 28 30 30 30 31 33 34 35 35 35 34 33 34 35 36 37 36 36 37 41 44 45 47 49 50 49 49 50 49 48 47 47 48 49 50 50 50 50 50 51 51 50 50 49 49 49 49 48 48 48 48 49 49 49 48 48 47 47 46
24 25 26 28 30 32 32 31 32 32 33 35 37 37 37 37 37 37 37 37 36 36 36 38 41 44 46 48 50 50 51 51 52 51 49 48 47 49 51 52 52 52 52 53 53 53 53 53 53 52 51 51 51 51 50 50 50 50 50 50 49 48 48
25 27 29 29 30 32 34 34 34 34 33 34 35 36 37 38 38 39 39 39 38 38 38 38 40 42 43 45 47 49 51 52 52 52 51 50 49 48 49 51 52 53 53 54 54 55 55 55 55 55 55 54 53 53 53 53 52 52 52 52 51 51 50
27 28 29 30 30 31 33 34 35 35 35 35 35 37 37 38 37 38 40 41 41 42 41 40 40 40 40 41 44 46 48 49 49 50 50 50 50 50 50 50 51 52 53 53 54 55 55 56 56 56 57 57 56 56 56 55 55 54 54 54 54 54 53
29 29 30 31 32 33 33 33 34 36 36 36 36 38 40 40 38 37 37 39 40 42 43 43 43 43 42 41 42 44 45 45 45 46 47 47 48 49 49 50 50 51 52 52 52 53 53 54 54 55 56 57 57 57 57 57 57 57 57 57 57 57 57
31 30 30 32 34 34 34 34 35 36 37 37 36 37 39 41 40 39 38 38 38 39 40 41 42 44 45 45 44 44 44 44 44 44 45 45 45 46 46 47 49 50 51 51 51 51 52 52 53 54 54 55 56 56 57 58 58 59 59 59 59 59 59
30 30 30 31 32 33 34 34 35 35 36 36 36 37 37 39 41 41 41 40 39 38 38 38 40 41 43 44 45 46 46 46 45 45 45 45 45 45 45 46 47 47 48 49 49 50 50 51 51 52 53 54 55 55 56 57 57 58 58 59 59 60 61
29 30 31 31 32 33 34 35 36 36 36 35 36 37 38 39 40 41 43 42 41 39 39 39 38 39 39 40 41 43 45 46 47 46 46 46 47 47 47 47 47 46 46 47 48 49 49 50 50 50 51 52 53 54 55 55 56 57 58 58 59 59 60
Wind_Direction
234 211 203 210 202 195 202 198 194 198 201 200 196 199 213 206 198 201 209 221 226 227 229 237 243 242 245 247 241 238 231 220 216 216 216 214 211 214 220 224 229 234 237 235 232 229 227 229 227 220 220 219 224 232 228 222 226 231 234 234 234 238 238
243 219 201 203 197 187 195 202 202 197 190 190 180 185 209 198 195 211 216 220 226 230 232 239 245 244 244 245 241 241 239 229 224 227 229 224 215 215 220 223 229 237 245 246 239 233 229 228 225 221 222 218 224 237 233 224 220 220 225 228 228 232 237
229 218 198 195 190 185 189 195 202 196 182 181 178 182 196 189 194 214 218 218 224 231 235 241 247 248 245 244 243 242 241 235 233 235 237 232 218 213 213 217 226 232 238 240 237 233 228 224 227 232 232 226 228 238 236 229 225 225 226 224 221 223 227
208 197 188 191 191 190 191 190 197 197 188 185 183 183 187 185 197 217 221 224 228 229 232 237 243 243 240 239 240 243 245 242 244 244 238 234 228 221 217 216 225 230 232 235 238 238 230 219 225 243 247 241 236 235 232 230 229 230 231 227 222 220 216
197 186 183 189 191 190 192 193 200 202 198 193 188 188 187 183 198 220 223 230 236 232 232 238 241 241 239 237 237 241 245 246 248 248 240 235 234 231 225 220 224 230 232 235 239 244 239 229 232 246 255 246 235 231 227 227 229 230 229 229 228 224 215
197 189 184 191 194 190 189 195 204 208 203 193 187 190 189 186 205 227 222 228 239 237 236 237 236 238 239 234 232 236 242 246 246 246 243 239 233 231 230 223 223 228 232 233 231 233 243 241 237 243 255 239 223 224 224 221 223 225 227 229 229 225 217
192 196 190 193 198 195 193 196 203 209 204 196 190 191 190 194 214 230 225 228 236 235 235 236 233 232 233 233 232 235 239 241 241 241 242 241 235 232 231 223 222 228 234 236 231 229 238 243 244 250 263 247 216 213 219 216 217 222 225 229 230 229 225
167 198 196 194 199 199 196 196 196 194 193 194 196 195 192 200 218 225 225 231 234 231 232 235 236 233 232 236 241 240 237 236 235 235 236 240 237 232 228 225 227 232 235 235 232 230 231 241 252 258 261 252 224 216 220 216 218 222 224 225 226 227 229
156 185 194 193 198 200 199 199 195 186 176 177 200 206 197 203 221 222 223 232 236 235 234 235 240 239 234 235 238 239 241 240 237 233 232 235 232 227 227 228 230 234 235 234 235 234 230 236 252 261 257 249 237 230 228 221 223 226 226 225 224 224 227
163 179 194 196 197 201 204 203 194 179 169 174 198 211 207 214 227 223 220 227 234 237 236 237 244 243 234 231 234 238 244 246 244 239 232 228 224 222 226 227 229 232 235 236 236 236 231 231 244 255 255 250 245 239 234 228 228 231 233 231 229 229 228
177 181 193 198 199 200 203 205 196 178 167 177 197 205 213 224 229 224 221 225 230 236 235 235 240 241 233 229 230 235 241 244 245 242 234 227 223 223 225 226 227 229 233 238 240 240 237 232 235 242 243 244 244 242 237 232 231 236 240 236 231 232 231
190 190 194 198 203 204 201 201 198 184 172 184 202 204 216 226 225 223 224 223 228 237 237 233 237 241 239 235 231 232 238 242 244 242 235 228 224 224 226 228 229 229 231 236 241 244 243 236 235 239 241 242 244 245 243 238 234 236 241 240 235 235 234
189 194 200 202 207 213 208 203 200 195 192 200 208 208 216 222 223 223 223 221 225 233 235 234 238 242 242 239 234 232 235 239 241 240 237 229 222 222 224 227 230 231 232 234 239 244 245 239 235 236 237 240 242 244 246 244 239 236 238 244 250 244 237
201 200 202 208 213 224 222 209 203 200 199 204 209 210 215 220 222 221 220 221 224 228 232 235 238 243 243 239 237 235 234 238 238 235 234 230 224 222 223 225 229 231 232 234 237 241 243 241 240 238 239 243 245 245 248 248 244 241 241 248 260 256 239
219 216 212 216 223 228 227 219 214 208 203 206 209 210 214 221 222 221 221 223 224 226 231 235 235 239 242 240 239 237 235 238 238 230 226 225 223 223 223 225 227 229 232 234 236 240 242 243 245 247 248 248 245 245 248 249 246 245 245 248 251 249 240
227 228 227 227 226 227 228 228 227 218 207 207 210 211 216 220 221 221 223 225 226 227 232 237 237 240 244 243 242 240 235 237 240 233 225 222 221 221 221 223 224 226 229 231 233 237 240 243 245 248 250 250 249 248 249 250 249 249 248 246 242 241 241
226 230 232 229 223 220 221 221 220 215 210 209 211 215 220 222 221 221 222 225 228 228 231 236 240 242 245 243 242 241 239 237 237 237 232 226 224 224 223 224 224 224 226 227 229 231 234 238 240 243 248 251 254 254 253 254 253 252 253 250 246 243 242
224 226 228 226 220 215 215 215 217 222 225 222 217 218 222 223 222 224 223 225 229 230 232 236 238 241 243 242 241 241 241 239 237 236 235 231 228 227 227 227 227 227 227 228 228 229 230 233 236 239 243 247 251 254 255 257 256 255 256 257 256 253 250
221 223 225 226 224 220 218 218 219 223 228 228 221 220 223 224 223 225 226 227 230 232 234 235 237 240 242 243 244 243 241 240 238 237 236 235 232 230 230 230 229 229 230 230 231 231 231 232 234 236 239 241 246 250 253 256 257 257 257 258 259 259 257
218 220 223 225 227 228 225 222 220 220 223 227 225 224 229 230 227 228 230 230 232 234 236 237 240 243 245 247 248 246 243 240 239 239 240 240 238 236 235 234 233 232 232 232 234 235 235 235 235 236 238 239 242 246 250 254 257 258 258 258 260 261 261
217 218 222 224 227 231 230 224 220 219 221 225 227 229 234 235 232 231 232 232 233 236 238 240 242 245 247 248 248 247 244 241 239 240 241 241 241 240 239 239 237 236 235 235 235 236 238 238 238 238 239 240 241 243 246 250 254 257 258 259 260 262 262
222 220 223 226 227 230 232 229 225 224 224 226 229 232 236 237 234 233 232 231 232 235 238 239 240 242 245 247 245 243 242 241 240 240 241 241 242 241 240 240 239 238 238 237 236 237 239 240 241 241 241 241 242 242 243 245 248 252 255 257 259 260 261
229 226 227 229 229 229 231 231 228 227 228 229 229 231 235 237 236 234 232 231 231 233 235 237 238 238 240 243 242 240 239 239 239 240 240 240 240 241 240 240 240 239 239 238 238 238 239 240 242 243 243 243 244 244 244 245 246 248 251 253 255 257 259
234 231 229 231 233 233 232 230 227 226 228 230 230 231 235 239 238 236 234 233 233 233 232 234 237 237 238 241 242 240 240 239 239 240 241 240 240 241 241 241 241 240 240 239 238 239 240 240 241 243 244 245 246 246 246 247 247 248 250 251 253 255 257
237 237 234 233 234 235 234 233 232 230 231 233 235 235 237 239 238 237 236 236 237 235 232 231 235 237 238 240 242 243 242 239 238 239 240 240 241 241 242 243 243 242 242 241 240 240 240 240 241 242 244 246 247 248 248 248 248 249 251 252 253 255 256
238 239 239 238 237 236 237 237 238 237 234 236 239 240 239 240 240 239 238 238 239 238 234 231 233 236 238 240 241 243 242 239 236 236 236 237 239 240 242 243 243 244 244 243 242 242 242 242 242 242 244 245 247 248 249 249 248 249 251 252 253 254 255
242 241 242 243 241 239 239 240 241 240 238 238 241 242 241 242 244 244 242 240 239 239 239 237 235 237 239 240 240 241 241 239 236 235 236 237 237 239 241 243 244 246 247 247 246 244 244 244 245 245 245 246 248 249 249 250 250 249 250 251 252 253 253
247 244 245 246 245 243 242 243 243 243 243 243 244 244 243 242 243 245 245 244 241 239 239 241 240 239 240 240 241 241 241 240 237 235 236 238 238 239 240 242 244 246 248 249 249 248 247 247 247 248 248 248 249 250 250 251 251 251 251 251 252 253 253
255 251 249 247 247 246 245 245 246 246 246 246 247 247 246 244 242 243 245 247 246 241 239 240 242 243 243 244 243 241 241 240 239 237 237 240 241 242 242 243 245 247 248 249 250 251 251 251 250 251 251 251 251 251 252 252 253 253 253 252 252 253 253
261 257 253 249 247 245 244 244 246 247 246 245 245 246 246 245 244 244 245 248 249 247 243 241 241 243 245 246 246 244 242 242 242 241 240 242 244 245 246 246 246 247 248 249 250 251 252 253 253 253 253 253 253 253 253 254 254 255 255 255 254 253 254
263 261 257 252 250 248 246 243 244 246 246 246 245 244 244 246 246 246 247 248 249 249 246 244 242 242 243 246 247 248 247 246 246 246 245 245 245 247 248 248 248 248 249 250 251 252 253 253 254 255 255 255 255 255 255 255 255 256 257 257 256 255 255
261 261 260 257 255 254 251 247 245 245 246 247 247 246 244 244 246 248 249 250 250 249 246 245 245 245 244 245 247 248 248 248 249 250 250 249 248 247 248 249 250 251 251 251 251 252 253 254 254 255 255 256 256 256 257 257 257 257 258 258 259 258 257
260 260 260 258 255 253 252 251 249 246 244 245 248 249 247 245 244 246 248 250 250 250 249 248 247 246 246 246 248 248 248 248 248 249 250 250 250 249 249 249 250 251 251 252 252 253 253 254 254 255 255 255 255 256 256 257 257 257 257 258 258 259 259
262 260 259 255 252 250 251 253 254 251 247 245 246 249 250 248 245 244 246 248 250 251 252 251 251 250 249 248 248 249 249 248 248 248 249 249 249 249 249 249 249 249 250 251 252 252 253 253 254 255 256 256 256 256 256 257 257 257 257 257 257 258 258
264 262 260 256 254 252 252 252 253 253 253 250 248 249 251 252 251 248 247 248 249 250 251 251 252 252 251 250 249 249 250 250 249 248 248 249 249 249 249 249 248 248 249 249 250 251 252 252 253 254 255 256 256 257 257 257 257 258 258 258 258 258 258
267 265 260 256 253 251 251 251 251 253 255 254 251 250 250 252 253 253 251 249 248 249 250 250 250 251 252 251 250 250 250 250 250 249 249 249 250 250 249 248 248 248 248 249 250 250 251 251 252 253 254 255 256 256 257 257 257 258 258 258 258 258 259
269 267 263 259 255 251 250 250 250 251 253 254 254 254 253 252 252 253 253 251 250 249 249 249 249 250 251 251 251 251 251 250 250 250 250 250 250 250 250 250 250 249 249 249 250 250 251 251 252 252 253 254 255 256 256 257 257 257 257 258 258 258 259
Height
5822 5828 5832 5835 5838 5842 5847 5850 5852 5855 5861 5864 5867 5871 5873 5875 5879 5879 5878 5877 5877 5879 5881 5882 5884 5885 5888 5892 5894 5897 5900 5903 5905 5906 5908 5910 5911 5913 5914 5915 5916 5916 5917 5919 5921 5922 5922 5924 5926 5928 5930 5933 5934 5932 5933 5936 5938 5940 5941 5943 5944 5945 5947
5821 5826 5831 5834 5837 5839 5843 5849 5851 5854 5859 5862 5865 5868 5870 5873 5875 5876 5876 5877 5877 5878 5880 5881 5881 5883 5887 5890 5892 5894 5897 5900 5903 5904 5907 5908 5910 5912 5913 5914 5914 5915 5917 5918 5919 5919 5920 5921 5924 5926 5927 5930 5932 5932 5933 5935 5937 5938 5939 5941 5942 5944 5945
5819 5823 5828 5830 5832 5835 5839 5846 5850 5852 5856 5858 5860 5863 5867 5870 5871 5872 5873 5875 5875 5875 5877 5879 5880 5882 5885 5887 5890 5893 5895 5897 5900 5902 5905 5906 5908 5910 5911 5912 5913 5914 5914 5914 5914 5916 5918 5921 5924 5925 5925 5928 5930 5930 5931 5934 5936 5937 5938 5939 5941 5942 5944
5817 5820 5825 5827 5830 5833 5837 5842 5845 5848 5851 5854 5857 5861 5863 5867 5868 5869 5870 5871 5871 5872 5874 5877 5878 5877 5880 5884 5889 5892 5893 5895 5897 5900 5902 5904 5905 5907 5909 5910 5911 5912 5912 5911 5913 5918 5921 5923 5924 5923 5924 5926 5928 5928 5930 5932 5934 5936 5937 5938 5939 5941 5941
5813 5818 5823 5825 5829 5833 5837 5841 5842 5843 5847 5852 5856 5859 5862 5865 5866 5866 5868 5869 5869 5871 5874 5876 5875 5873 5876 5883 5888 5890 5891 5892 5894 5897 5900 5901 5903 5905 5907 5909 5910 5910 5910 5912 5917 5920 5921 5921 5921 5921 5923 5924 5925 5926 5928 5931 5932 5933 5935 5936 5938 5939 5939
5811 5816 5820 5823 5827 5831 5834 5837 5839 5842 5847 5851 5855 5858 5861 5863 5863 5863 5865 5866 5867 5869 5870 5872 5872 5873 5876 5881 5885 5887 5888 5889 5891 5895 5897 5899 5901 5903 5906 5907 5907 5907 5909 5913 5917 5919 5919 5918 5918 5919 5921 5923 5924 5924 5926 5928 5930 5931 5932 5933 5935 5936 5937
5810 5814 5819 5823 5827 5829 5831 5834 5838 5843 5847 5850 5852 5855 5857 5858 5858 5859 5861 5863 5864 5865 5866 5867 5869 5871 5876 5880 5882 5884 5885 5886 5888 5893 5895 5896 5898 5902 5904 5905 5905 5906 5907 5911 5915 5917 5918 5916 5917 5918 5920 5921 5923 5923 5924 5926 5927 5927 5928 5930 5933 5935 5936
5810 5813 5818 5822 5824 5826 5828 5831 5835 5840 5844 5849 5852 5853 5854 5855 5854 5855 5858 5859 5860 5861 5863 5864 5865 5868 5874 5879 5880 5880 5880 5882 5886 5890 5892 5894 5897 5899 5901 5902 5903 5904 5906 5909 5912 5915 5917 5916 5916 5917 5918 5919 5921 5922 5922 5923 5924 5924 5925 5927 5931 5932 5933
5808 5811 5814 5817 5819 5822 5825 5827 5832 5837 5841 5847 5851 5851 5852 5851 5850 5852 5855 5856 5856 5858 5860 5861 5862 5866 5872 5876 5877 5877 5878 5879 5882 5886 5889 5893 5895 5897 5897 5899 5901 5902 5904 5907 5910 5913 5915 5915 5914 5914 5916 5918 5919 5920 5920 5921 5922 5922 5922 5925 5928 5929 5929
5805 5807 5809 5812 5814 5818 5821 5824 5830 5835 5839 5842 5844 5845 5848 5847 5846 5848 5850 5851 5853 5854 5857 5858 5859 5863 5868 5871 5873 5874 5875 5876 5878 5881 5885 5890 5892 5894 5895 5896 5898 5900 5901 5904 5907 5910 5913 5914 5912 5912 5914 5915 5917 5918 5919 5920 5920 5920 5921 5924 5926 5926 5927
5802 5804 5807 5809 5812 5815 5820 5824 5828 5832 5836 5837 5838 5841 5843 5842 5843 5845 5845 5846 5849 5850 5853 5855 5856 5859 5863 5867 5870 5872 5872 5873 5875 5878 5881 5885 5888 5890 5892 5893 5896 5897 5899 5901 5904 5906 5909 5911 5912 5911 5912 5913 5915 5917 5918 5919 5919 5920 5921 5922 5924 5924 5925
5802 5804 5806 5809 5811 5812 5816 5820 5826 5830 5833 5834 5835 5837 5838 5837 5839 5842 5842 5843 5845 5846 5848 5851 5853 5855 5858 5863 5867 5869 5870 5871 5872 5875 5878 5881 5884 5886 5888 5890 5892 5895 5897 5898 5900 5902 5905 5907 5908 5909 5910 5911 5912 5914 5917 5918 5919 5919 5919 5920 5921 5922 5923
5799 5802 5805 5808 5809 5811 5813 5817 5821 5826 5828 5828 5829 5832 5833 5834 5836 5838 5839 5841 5842 5842 5844 5848 5851 5852 5854 5859 5863 5866 5867 5869 5870 5873 5875 5878 5880 5883 5885 5886 5888 5890 5893 5895 5896 5899 5901 5903 5904 5905 5906 5908 5910 5912 5913 5915 5917 5917 5917 5918 5919 5920 5921
5797 5801 5804 5805 5807 5810 5814 5816 5817 5820 5822 5822 5824 5828 5830 5830 5831 5833 5837 5839 5839 5840 5842 5845 5847 5849 5852 5856 5859 5862 5864 5865 5868 5870 5872 5875 5877 5879 5881 5883 5885 5887 5889 5891 5893 5895 5898 5901 5902 5902 5903 5904 5907 5909 5910 5912 5914 5915 5916 5917 5919 5920 5921
5796 5798 5800 5803 5806 5808 5810 5812 5813 5816 5819 5821 5823 5826 5826 5825 5827 5831 5834 5835 5837 5839 5841 5842 5843 5846 5850 5853 5856 5859 5862 5863 5865 5867 5870 5872 5874 5876 5878 5880 5882 5884 5886 5888 5890 5891 5894 5896 5898 5899 5900 5901 5903 5905 5907 5908 5910 5912 5914 5917 5918 5919 5920
5794 5796 5799 5802 5804 5806 5808 5809 5810 5813 5816 5818 5822 5824 5822 5821 5823 5827 5830 5832 5834 5837 5839 5839 5841 5844 5848 5850 5853 5857 5860 5861 5863 5864 5866 5869 5871 5873 5875 5877 5879 5881 5883 5885 5887 5888 5890 5892 5894 5896 5898 5899 5900 5902 5904 5905 5907 5910 5912 5915 5917 5918 5920
5791 5793 5796 5798 5799 5803 5805 5806 5807 5809 5811 5814 5818 5819 5818 5817 5820 5824 5828 5829 5830 5833 5836 5837 5839 5842 5845 5848 5851 5854 5857 5859 5860 5861 5863 5866 5868 5870 5871 5873 5876 5878 5880 5882 5884 5886 5887 5889 5891 5893 5895 5896 5898 5900 5901 5902 5904 5907 5909 5912 5915 5917 5918
5789 5790 5791 5792 5795 5798 5800 5802 5805 5807 5809 5812 5815 5813 5812 5814 5818 5822 5826 5827 5828 5831 5833 5834 5836 5839 5843 5845 5847 5850 5853 5855 5857 5859 5860 5862 5864 5866 5868 5870 5872 5874 5877 5879 5881 5883 5885 5886 5888 5890 5892 5894 5896 5897 5898 5900 5902 5904 5906 5909 5911 5913 5916
5785 5787 5788 5789 5791 5793 5796 5801 5804 5804 5805 5808 5809 5807 5808 5813 5817 5820 5822 5825 5827 5829 5830 5832 5834 5837 5839 5841 5843 5846 5849 5851 5853 5855 5857 5859 5861 5863 5864 5866 5868 5870 5873 5875 5877 5879 5881 5883 5885 5887 5889 5891 5893 5894 5895 5897 5899 5901 5903 5905 5907 5909 5912
5782 5784 5785 5786 5787 5789 5794 5800 5802 5801 5801 5803 5803 5803 5808 5813 5816 5817 5818 5821 5824 5825 5826 5828 5831 5833 5834 5835 5838 5842 5845 5848 5850 5852 5853 5855 5857 5859 5861 5862 5864 5866 5868 5871 5873 5875 5877 5879 5881 5883 5885 5887 5889 5891 5892 5894 5895 5897 5899 5901 5903 5905 5907
5779 5780 5781 5782 5784 5786 5790 5794 5796 5796 5798 5799 5799 5801 5805 5810 5813 5815 5815 5817 5819 5820 5821 5823 5825 5827 5829 5830 5832 5837 5841 5843 5845 5847 5849 5851 5853 5855 5857 5858 5860 5862 5864 5866 5869 5871 5872 5874 5877 5879 5881 5883 5885 5887 5889 5890 5891 5892 5894 5897 5899 5901 5902
5775 5777 5777 5779 5781 5782 5784 5787 5790 5793 5796 5796 5796 5798 5801 5805 5809 5811 5811 5812 5814 5815 5816 5818 5820 5822 5823 5824 5827 5832 5835 5838 5841 5842 5844 5847 5849 5852 5853 5853 5856 5858 5859 5862 5865 5865 5867 5870 5872 5875 5877 5878 5880 5883 5885 5887 5888 5889 5891 5893 5895 5896 5898
5772 5774 5775 5776 5776 5778 5780 5783 5787 5790 5791 5792 5793 5793 5795 5799 5803 5806 5807 5807 5808 5810 5812 5813 5814 5816 5818 5818 5822 5826 5831 5834 5837 5838 5840 5843 5846 5848 5848 5848 5851 5854 5855 5858 5859 5859 5861 5865 5867 5869 5871 5873 5875 5877 5880 5882 5884 5886 5887 5889 5890 5892 5894
5769 5770 5772 5772 5773 5774 5777 5780 5783 5785 5785 5786 5788 5789 5791 5794 5798 5799 5800 5802 5802 5804 5807 5808 5809 5811 5812 5813 5817 5823 5828 5831 5834 5835 5836 5838 5841 5843 5842 5843 5847 5850 5851 5852 5854 5854 5856 5860 5862 5863 5865 5867 5869 5871 5874 5877 5879 5880 5882 5884 5886 5887 5889
5766 5767 5768 5768 5769 5771 5773 5776 5779 5780 5781 5782 5784 5785 5788 5790 5790 5792 5795 5797 5797 5798 5801 5802 5804 5806 5806 5807 5812 5819 5824 5827 5829 5831 5831 5834 5837 5837 5837 5839 5843 5845 5845 5847 5848 5849 5851 5855 5857 5858 5859 5861 5863 5866 5868 5871 5873 5874 5876 5878 5880 5882 5884
5763 5764 5764 5765 5766 5768 5771 5773 5773 5775 5778 5780 5780 5782 5784 5784 5784 5788 5792 5792 5791 5793 5796 5797 5799 5801 5803 5805 5810 5815 5818 5820 5823 5825 5826 5828 5830 5831 5832 5835 5837 5838 5838 5841 5843 5845 5847 5849 5851 5852 5854 5856 5858 5860 5862 5864 5866 5868 5870 5872 5874 5876 5878
5760 5760 5761 5761 5763 5766 5768 5768 5768 5771 5774 5776 5777 5778 5779 5780 5782 5784 5785 5784 5785 5789 5792 5793 5795 5798 5800 5802 5806 5809 5811 5813 5817 5819 5820 5821 5823 5824 5827 5830 5831 5831 5832 5835 5837 5840 5842 5844 5845 5847 5849 5851 5852 5854 5856 5857 5860 5863 5865 5867 5868 5871 5873
5757 5758 5758 5759 5761 5762 5762 5763 5766 5768 5770 5770 5771 5773 5775 5777 5779 5779 5778 5777 5779 5784 5788 5790 5792 5794 5796 5797 5799 5801 5802 5806 5810 5813 5814 5815 5817 5818 5821 5824 5824 5825 5827 5828 5831 5834 5836 5838 5839 5841 5843 5845 5847 5848 5849 5851 5853 5856 5859 5861 5863 5865 5867
5753 5754 5755 5756 5757 5757 5757 5759 5762 5763 5764 5765 5767 5768 5770 5772 5773 5774 5773 5772 5774 5779 5784 5786 5787 5789 5789 5791 5792 5794 5796 5799 5804 5807 5809 5810 5811 5813 5816 5817 5818 5819 5821 5823 5825 5827 5829 5831 5833 5835 5837 5839 5841 5842 5844 5845 5847 5849 5852 5854 5857 5858 5860
5749 5750 5751 5752 5752 5751 5753 5755 5755 5756 5757 5759 5761 5763 5764 5766 5767 5768 5769 5769 5770 5774 5779 5781 5781 5782 5782 5783 5785 5788 5791 5793 5796 5799 5802 5805 5806 5807 5809 5811 5812 5814 5816 5817 5819 5821 5822 5824 5826 5828 5830 5832 5834 5836 5838 5839 5841 5843 5845 5847 5850 5852 5854
5746 5746 5746 5746 5747 5747 5748 5750 5750 5750 5752 5753 5754 5757 5759 5760 5761 5763 5765 5766 5767 5769 5772 5774 5775 5777 5778 5779 5780 5782 5785 5787 5788 5792 5796 5799 5800 5801 5802 5803 5806 5808 5809 5811 5812 5814 5816 5817 5819 5821 5823 5825 5827 5829 5831 5833 5835 5837 5838 5840 5842 5845 5847
5741 5741 5741 5742 5743 5743 5743 5744 5745 5746 5747 5747 5748 5751 5753 5755 5756 5758 5759 5761 5762 5763 5765 5767 5769 5771 5774 5775 5776 5777 5779 5781 5784 5786 5789 5791 5793 5795 5796 5798 5800 5801 5802 5804 5806 5807 5809 5811 5813 5815 5816 5818 5820 5822 5824 5826 5828 5830 5832 5834 5835 5837 5839
5736 5736 5736 5737 5738 5738 5738 5739 5739 5741 5742 5743 5743 5744 5745 5748 5751 5753 5754 5755 5755 5756 5759 5762 5763 5765 5768 5769 5770 5771 5773 5776 5778 5779 5781 5784 5786 5788 5790 5793 5794 5795 5796 5797 5799 5801 5803 5804 5806 5807 5809 5811 5813 5815 5817 5819 5821 5823 5825 5826 5828 5830 5831
5730 5731 5731 5731 5732 5732 5733 5734 5734 5735 5737 5739 5740 5739 5739 5741 5745 5747 5748 5749 5749 5750 5752 5755 5757 5758 5761 5763 5764 5765 5766 5769 5771 5773 5775 5777 5779 5781 5783 5786 5788 5789 5790 5791 5793 5794 5796 5797 5798 5800 5801 5802 5805 5807 5809 5811 5813 5815 5817 5819 5820 5822 5824
5724 5725 5726 5726 5726 5727 5728 5728 5729 5729 5730 5733 5735 5735 5735 5735 5738 5741 5742 5743 5744 5745 5746 5748 5750 5751 5753 5755 5758 5759 5761 5763 5765 5767 5768 5770 5772 5774 5776 5778 5779 5781 5783 5785 5786 5788 5789 5790 5791 5792 5794 5795 5796 5798 5800 5802 5804 5806 5808 5810 5812 5813 5815
5718 5718 5719 5720 5721 5721 5722 5723 5724 5724 5725 5726 5728 5730 5731 5731 5732 5733 5735 5737 5738 5740 5741 5742 5743 5744 5746 5748 5750 5753 5754 5756 5758 5760 5762 5764 5765 5767 5768 5769 5771 5774 5776 5778 5779 5780 5781 5782 5784 5785 5786 5788 5789 5790 5792 5794 5796 5798 5799 5801 5803 5804 5806
5712 5712 5713 5714 5715 5716 5716 5717 5718 5719 5720 5721 5722 5723 5725 5726 5726 5727 5728 5730 5733 5735 5736 5737 5738 5739 5740 5742 5744 5746 5748 5749 5751 5754 5756 5757 5758 5758 5759 5761 5764 5767 5769 5770 5771 5772 5773 5775 5776 5778 5779 5780 5781 5782 5784 5785 5787 5789 5791 5792 5794 5796 5798